Weather History for Edinburg, TX

Change the Weather History Date:

Tuesday, July 30, 2013

  Actual Average (KMFE) Record (KMFE)
Temperature  
Mean Temperature 92 °F 87 °F  
Max Temperature 102 °F 98 °F 106 °F (2009)
Min Temperature 81 °F 77 °F 65 °F (1974)
Degree Days  
Heating Degree Days 0 0  
Month to date heating degree days 0  
Since 1 June heating degree days 0  
Since 1 July heating degree days 0  
Cooling Degree Days 26 22  
Month to date cooling degree days 650  
Year to date cooling degree days 2533  
Since 1 June cooling degree days 1278  
Growing Degree Days 42 (Base 50)    
Moisture  
Dew Point 70 °F    
Average Humidity 57    
Maximum Humidity 83    
Minimum Humidity 23    
Precipitation  
Precipitation 0.00 in 0.05 in 1.15 in (1947)
Month to date precipitation 1.96  
Year to date precipitation 11.32  
Sea Level Pressure  
Sea Level Pressure 30.02 in    
Wind  
Wind Speed 13 mph (SSE)    
Max Wind Speed 18 mph    
Max Gust Speed 30 mph    
Visibility 8 miles    
Events      
T = Trace of Precipitation, MM = Missing Value Source: NWS Daily Summary

Daily Weather History Graph

Daily Weather History Graph

Search for Another Location

Airport:

Trip Planner

Search our weather history database for the weather conditions in past years. The results will help you decide how hot, cold, wet, or windy it might be!

Date:

Astronomy

Jul. 30, 2013 Rise Set
Actual Time 6:56 AM CDT 8:20 PM CDT
Civil Twilight 6:31 AM CDT 8:45 PM CDT
Nautical Twilight 6:02 AM CDT 9:15 PM CDT
Astronomical Twilight 5:31 AM CDT 9:46 PM CDT
Moon 1:11 AM CDT (7/30) 2:43 PM CDT (7/30)
Length of Visible Light 14h 13m
Length of Day
13h 23m
Last Quarter, 41% of the Moon is Illuminated
Jul 30
Last Quarter
Aug 6
New
Aug 14
First Quarter
Aug 20
Full
Aug 28
Last Quarter

Hourly Weather History & Observations

Time (CDT) Temp. Heat Index Dew Point Humidity Pressure Visibility Wind Dir Wind Speed Gust Speed Precip Events Conditions
12:15 AM 84.2 °F 92.3 °F 75.2 °F 74% 30.04 in 10.0 mi SSE 13.8 mph - N/A   Scattered Clouds
12:35 AM 84.2 °F 92.6 °F 75.4 °F 75% 30.04 in 10.0 mi SSE 13.8 mph 19.6 mph N/A   Mostly Cloudy
12:55 AM 84.2 °F 92.6 °F 75.4 °F 75% 30.04 in 10.0 mi SSE 12.7 mph 21.9 mph N/A   Mostly Cloudy
1:15 AM 84.0 °F 92.2 °F 75.4 °F 75% 30.04 in 10.0 mi SSE 13.8 mph 19.6 mph N/A   Mostly Cloudy
1:35 AM 83.8 °F 92.1 °F 75.6 °F 76% 30.04 in 10.0 mi SSE 12.7 mph 18.4 mph N/A   Mostly Cloudy
1:55 AM 83.7 °F 91.7 °F 75.6 °F 76% 30.04 in 10.0 mi SSE 15.0 mph 19.6 mph N/A   Mostly Cloudy
2:15 AM 83.5 °F 91.6 °F 75.6 °F 77% 30.03 in 10.0 mi SSE 11.5 mph - N/A   Mostly Cloudy
2:35 AM 83.1 °F 91.0 °F 75.6 °F 78% 30.03 in 10.0 mi SSE 10.4 mph - N/A   Mostly Cloudy
2:55 AM 83.3 °F 91.1 °F 75.6 °F 77% 30.03 in 10.0 mi SSE 9.2 mph 16.1 mph N/A   Mostly Cloudy
3:15 AM 83.7 °F 92.0 °F 75.7 °F 77% 30.03 in 10.0 mi SSE 10.4 mph - N/A   Mostly Cloudy
3:35 AM 83.3 °F 91.4 °F 75.7 °F 78% 30.02 in 10.0 mi SSE 12.7 mph 17.3 mph N/A   Mostly Cloudy
3:55 AM 82.9 °F 90.8 °F 75.7 °F 79% 30.02 in 10.0 mi SSE 11.5 mph 17.3 mph N/A   Scattered Clouds
4:15 AM 82.6 °F 90.2 °F 75.9 °F 80% 30.02 in 10.0 mi SSE 10.4 mph - N/A   Scattered Clouds
4:35 AM 82.4 °F 89.8 °F 75.7 °F 80% 30.02 in 10.0 mi SSE 11.5 mph - N/A   Scattered Clouds
4:55 AM 82.4 °F 90.1 °F 75.9 °F 81% 30.02 in 10.0 mi SSE 12.7 mph 17.3 mph N/A   Scattered Clouds
5:15 AM 82.4 °F 90.1 °F 76.1 °F 81% 30.02 in 10.0 mi SSE 10.4 mph - N/A   Scattered Clouds
5:35 AM 82.0 °F 89.1 °F 75.7 °F 81% 30.02 in 10.0 mi SSE 11.5 mph - N/A   Clear
5:55 AM 81.9 °F 88.9 °F 75.9 °F 82% 30.02 in 7.0 mi SSE 11.5 mph 18.4 mph N/A   Clear
6:15 AM 81.9 °F 88.9 °F 75.7 °F 82% 30.02 in 7.0 mi SSE 11.5 mph - N/A   Clear
6:35 AM 81.7 °F 88.5 °F 75.7 °F 82% 30.03 in 7.0 mi SSE 8.1 mph - N/A   Scattered Clouds
6:55 AM 81.9 °F 88.9 °F 75.7 °F 82% 30.04 in 7.0 mi SSE 6.9 mph - N/A   Clear
7:15 AM 81.7 °F 88.7 °F 75.9 °F 83% 30.05 in 7.0 mi SSE 6.9 mph - N/A   Clear
7:35 AM 81.7 °F 88.7 °F 76.1 °F 83% 30.05 in 7.0 mi SE 5.8 mph - N/A   Clear
7:55 AM 82.4 °F 90.1 °F 76.1 °F 81% 30.05 in 7.0 mi SE 8.1 mph - N/A   Scattered Clouds
8:15 AM 83.7 °F 92.4 °F 76.3 °F 78% 30.05 in 7.0 mi South 9.2 mph - N/A   Mostly Cloudy
8:35 AM 84.6 °F 93.9 °F 76.1 °F 76% 30.06 in 7.0 mi South 10.4 mph - N/A   Overcast
8:55 AM 84.6 °F 93.5 °F 75.7 °F 75% 30.06 in 7.0 mi South 12.7 mph - N/A   Scattered Clouds
9:15 AM 86.9 °F 96.4 °F 75.4 °F 68% 30.06 in 5.0 mi SSE 10.4 mph - N/A   Haze
9:35 AM 88.3 °F 96.9 °F 73.9 °F 62% 30.07 in 5.0 mi South 13.8 mph 18.4 mph N/A   Haze
9:55 AM 90.0 °F 97.4 °F 72.1 °F 56% 30.07 in 5.0 mi South 13.8 mph 18.4 mph N/A   Haze
10:15 AM 90.5 °F 97.0 °F 71.4 °F 53% 30.07 in 7.0 mi SSE 12.7 mph 23.0 mph N/A   Clear
10:35 AM 91.4 °F 97.8 °F 70.7 °F 51% 30.07 in 5.0 mi SSE 17.3 mph - N/A   Haze
10:55 AM 92.3 °F 98.1 °F 69.8 °F 48% 30.07 in 7.0 mi SSE 16.1 mph - N/A   Clear
11:15 AM 94.3 °F 100.4 °F 69.8 °F 45% 30.07 in 5.0 mi SSE 16.1 mph 19.6 mph N/A   Haze
11:55 AM 95.7 °F 100.9 °F 68.4 °F 41% 30.06 in 7.0 mi South 15.0 mph 20.7 mph N/A   Clear
12:15 PM 96.8 °F 101.2 °F 67.1 °F 38% 30.06 in 5.0 mi South 10.4 mph - N/A   Haze
12:35 PM 97.5 °F 102.0 °F 67.1 °F 37% 30.05 in 7.0 mi South 10.4 mph 20.7 mph N/A   Clear
12:55 PM 98.4 °F 102.5 °F 66.0 °F 35% 30.03 in 7.0 mi SSE 13.8 mph 23.0 mph N/A   Clear
1:15 PM 99.0 °F 102.3 °F 65.1 °F 33% 30.03 in 7.0 mi SSE 13.8 mph 21.9 mph N/A   Clear
1:35 PM 100.0 °F 103.6 °F 65.5 °F 32% 30.02 in 7.0 mi SSE 15.0 mph 29.9 mph N/A   Clear
1:55 PM 100.4 °F 103.0 °F 63.3 °F 30% 30.01 in 7.0 mi SSE 18.4 mph 24.2 mph N/A   Clear
2:15 PM 100.9 °F 102.1 °F 61.2 °F 27% 30.01 in 10.0 mi South 15.0 mph 20.7 mph N/A   Clear
2:35 PM 101.1 °F 101.9 °F 60.8 °F 26% 30.00 in 5.0 mi SSE 13.8 mph 23.0 mph N/A   Haze
2:55 PM 101.3 °F 101.6 °F 59.2 °F 25% 29.99 in 7.0 mi South 13.8 mph 21.9 mph N/A   Clear
3:15 PM 101.8 °F 102.4 °F 59.4 °F 25% 29.99 in 7.0 mi SE 18.4 mph 23.0 mph N/A   Clear
3:35 PM 102.4 °F 102.2 °F 58.3 °F 23% 29.99 in 7.0 mi South 16.1 mph - N/A   Clear
3:55 PM 102.2 °F 103.0 °F 59.7 °F 25% 29.98 in 7.0 mi SE 13.8 mph 21.9 mph N/A   Clear
4:15 PM 102.4 °F 103.3 °F 60.6 °F 25% 29.97 in 7.0 mi SSE 13.8 mph 23.0 mph N/A   Clear
4:35 PM 101.5 °F 104.9 °F 64.6 °F 30% 29.97 in 7.0 mi SE 17.3 mph 23.0 mph N/A   Clear
4:55 PM 100.2 °F 102.7 °F 64.0 °F 30% 29.97 in 7.0 mi SSE 16.1 mph 21.9 mph N/A   Clear
5:15 PM 100.0 °F 102.4 °F 63.9 °F 30% 29.96 in 7.0 mi SE 18.4 mph 23.0 mph N/A   Clear
5:35 PM 99.3 °F 101.7 °F 63.7 °F 31% 29.96 in 7.0 mi SE 12.7 mph 21.9 mph N/A   Clear
5:55 PM 99.1 °F 101.4 °F 63.1 °F 31% 29.97 in 7.0 mi SE 17.3 mph 20.7 mph N/A   Clear
6:15 PM 98.1 °F 101.2 °F 65.1 °F 34% 29.97 in 7.0 mi SSE 18.4 mph 21.9 mph N/A   Clear
6:35 PM 96.4 °F 100.6 °F 66.9 °F 38% 29.97 in 10.0 mi SE 17.3 mph 23.0 mph N/A   Clear
6:55 PM 95.4 °F 100.2 °F 68.0 °F 41% 29.97 in 10.0 mi SE 16.1 mph - N/A   Clear
7:15 PM 94.8 °F 99.8 °F 68.5 °F 42% 29.97 in 10.0 mi SE 18.4 mph - N/A   Clear
7:35 PM 93.4 °F 98.6 °F 68.9 °F 45% 29.98 in 10.0 mi SE 16.1 mph 24.2 mph N/A   Clear
7:55 PM 92.3 °F 97.0 °F 68.9 °F 46% 29.99 in 10.0 mi SE 13.8 mph 26.5 mph N/A   Clear
8:15 PM 90.7 °F 95.9 °F 69.6 °F 50% 29.98 in 10.0 mi SE 18.4 mph 23.0 mph N/A   Clear
8:35 PM 89.6 °F 94.3 °F 69.4 °F 51% 29.99 in 10.0 mi SE 15.0 mph 23.0 mph N/A   Clear
8:55 PM 88.3 °F 93.2 °F 69.8 °F 54% 29.99 in 10.0 mi SE 15.0 mph - N/A   Clear
9:15 PM 87.3 °F 92.4 °F 70.2 °F 57% 30.01 in 10.0 mi SE 12.7 mph - N/A   Clear
9:35 PM 86.4 °F 91.4 °F 70.7 °F 59% 30.01 in 10.0 mi SE 13.8 mph - N/A   Clear
9:55 PM 85.6 °F 90.8 °F 70.7 °F 61% 30.02 in 10.0 mi SE 12.7 mph - N/A   Clear
10:15 PM 84.7 °F 89.4 °F 70.3 °F 62% 30.03 in 10.0 mi SE 13.8 mph 18.4 mph N/A   Clear
10:35 PM 84.2 °F 88.7 °F 70.5 °F 63% 30.03 in 10.0 mi SE 12.7 mph - N/A   Clear
10:55 PM 83.3 °F 87.9 °F 70.7 °F 66% 30.04 in 7.0 mi SE 9.2 mph - N/A   Clear
11:15 PM 82.9 °F 87.7 °F 71.6 °F 68% 30.04 in 10.0 mi SE 10.4 mph - N/A   Clear
11:35 PM 82.4 °F 87.2 °F 71.8 °F 70% 30.05 in 7.0 mi SE 8.1 mph - N/A   Clear
11:55 PM 82.0 °F 87.0 °F 72.3 °F 72% 30.05 in 7.0 mi SE 9.2 mph - N/A   Clear